Terug naar catalogus

STARLINK-35824

ActiefCommunicatieVLEO
NORAD 66370·PAYLOAD·🇺🇸 United States

Gelanceerd Nov 6, 2025 vanaf Vandenberg Space Force Base

Loading…

Volgende Passages (komende 24 uur)

TLE

VersSource: CelesTrak SupGP

Epoch: Sep 14, 2026, 20:55 UTC

1 66370C 25254Y   26257.87201389  .00009976  00000+0  29482-3 0  2575
2 66370  53.1588  69.7699 0001262  81.9503 341.1479 15.34377200    19

Volg STARLINK-35824 in realtime met AllMySat

Download on the App Store